Home > Weather > Leerdam > Past weeks

Flag for Netherlands Weather for the Past 2 Weeks in Leerdam, Netherlands

Now
38 °F

Partly sunny.


Feels Like: 38 °F
Forecast: 49 / 74 °F
Wind: 2 mph from Southeast

Location: De Bilt

Current Time: May 5, 2016 at 6:59:29 AM

Latest Report: May 5, 2016 at 6:00 AM


Visibility: 14 mi

Pressure: 30.31 "Hg

Humidity: 92%

Dew Point: 35 °F

Location of LeerdamLocation

Historic Weather in Leerdam — Graph

°F

Leerdam Temperature Yesterday

Maximum temperature yesterday: 60 °F (at 4:00 PM)
Minimum temperature yesterday: 35 °F (at 5:00 AM)
Average temperature yesterday: 49 °F

High & Low Weather Summary for the Past Weeks

 TemperatureHumidityPressure
High63 °F (May 2, 4:00 PM)100% (May 4, 3:00 AM)30.50 "Hg (May 4, 3:00 AM)
Low33 °F (May 1, 6:00 AM)29% (May 1, 6:00 PM)29.44 "Hg (Apr 26, 6:00 AM)
Average46 °F71%30.07 "Hg
* Reported Apr 20 5:00 AM — May 5 5:00 AM, Leerdam, Weather by CustomWeather, © 2016

Note: Actual official high and low records may vary slightly from our data, if they occured in-between our weather recording intervals... More about our weather records

Advertising

Leerdam Weather History for the Previous 24 Hours

Scroll right to see more
 ConditionsComfort  
Time TempWeatherWind HumidityBarometerVisibility
5:00 AM
Thu, May 5
39 °FOvercast.2 mph87%30.31 "Hg19 mi
4:00 AM40 °FOvercast.3 mph86%30.32 "Hg19 mi
3:00 AM41 °FOvercast.2 mph81%30.32 "Hg19 mi
2:00 AM43 °FOvercast.2 mph78%30.33 "Hg22 mi
1:00 AM43 °FPassing clouds.3 mph81%30.34 "Hg25 mi
12:00 AM42 °FPassing clouds.2 mph89%30.34 "Hg25 mi
11:00 PM
Wed, May 4
45 °FOvercast.2 mph84%30.34 "Hg25 mi
10:00 PM49 °FOvercast.2 mph70%30.34 "Hg25 mi
9:00 PM54 °FPartly sunny.2 mph50%30.34 "Hg28 mi
8:00 PM57 °FOvercast.3 mph42%30.34 "Hg25 mi
7:00 PM58 °FPassing clouds.1 mph42%30.35 "Hg19 mi
6:00 PM59 °FOvercast.2 mph44%30.35 "Hg25 mi
5:00 PM58 °FOvercast.3 mph48%30.36 "Hg19 mi
4:00 PM60 °FOvercast.1 mph43%30.37 "Hg16 mi
3:00 PM58 °FOvercast.1 mph47%30.38 "Hg19 mi
2:00 PM60 °FPartly sunny.1 mph45%30.39 "Hg16 mi
1:00 PM57 °FScattered clouds.3 mph48%30.40 "Hg15 mi
12:00 PM56 °FPartly sunny.3 mph53%30.41 "Hg17 mi
11:00 AM54 °FPartly sunny.3 mph61%30.42 "Hg14 mi
10:00 AM52 °FPassing clouds.3 mph70%30.41 "Hg12 mi
9:00 AM48 °FSunny.2 mph80%30.41 "Hg11 mi
8:00 AM43 °FSunny.2 mph90%30.41 "Hg9 mi
6:00 AM36 °FPassing clouds.1 mph100%30.39 "Hg2 mi
Weather by CustomWeather, © 2016

See weather overviewHow to use our weather pages